Home   Weather   Chengdu   Past weeks
Flag for China

Past Weather in Chengdu, Sichuan, China — Yesterday and Last 2 Weeks

Now
64 °F

Fog.


Feels Like: 64 °F
Forecast: 68 / 63 °F
Wind: 1 mph from North

Location: Chengdu Airport

Current Time: Oct 20, 2019 at 11:29:27 am

Latest Report: Oct 20, 2019 at 10:00 am


Visibility: 2 mi

Pressure: 30.18 "Hg

Humidity: 88%

Dew Point: 61 °F

Location of ChengduLocation

Past Weather in Chengdu — Graph

°F

Chengdu Temperature Yesterday

Maximum temperature yesterday: 73 °F (at 1:00 pm)
Minimum temperature yesterday: 64 °F (at 4:00 am)
Average temperature yesterday: 68 °F

High & Low Weather Summary for the Past Weeks

 TemperatureHumidityPressure
High81 °F (Oct 5, 1:00 pm)94% (Oct 9, 8:00 am)30.36 "Hg (Oct 9, 8:00 am)
Low55 °F (Oct 18, 7:00 am)33% (Oct 16, 3:00 pm)29.86 "Hg (Oct 9, 3:00 pm)
Average68 °F74%30.12 "Hg
* Reported Oct 5 10:00 am — Oct 20 10:00 am, Chengdu. Weather by CustomWeather, © 2019

Note: Actual official high and low records may vary slightly from our data, if they occured in-between our weather recording intervals... More about our weather records

Advertising

Chengdu Weather History for the Previous 24 Hours

Scroll right to see more
 ConditionsComfort  
Time TempWeatherWind HumidityBarometerVisibility
10:00 am
Sun, Oct 20
64 °FFog.1 mph88%30.18 "Hg2 mi
9:00 am64 °FFog.No wind88%30.18 "Hg2 mi
8:00 am64 °FFog.3 mph88%30.15 "Hg2 mi
7:00 am63 °FFog.3 mph94%30.12 "Hg2 mi
6:00 am64 °FFog.3 mph88%30.12 "Hg3 mi
5:00 am64 °FPassing clouds.3 mph83%30.12 "Hg4 mi
4:00 am63 °FPassing clouds.3 mph88%30.12 "Hg4 mi
3:00 am64 °FPassing clouds.1 mph78%30.12 "Hg4 mi
2:00 am66 °FPassing clouds.No wind73%30.15 "Hg4 mi
1:00 am66 °FPassing clouds.3 mph73%30.15 "Hg4 mi
12:00 am66 °FPassing clouds.3 mph73%30.15 "Hg4 mi
11:00 pm
Sat, Oct 19
66 °FPassing clouds.3 mph78%30.15 "Hg4 mi
10:00 pm66 °FFog.3 mph78%30.15 "Hg3 mi
9:00 pm66 °FLight rain. Fog.3 mph83%30.12 "Hg3 mi
8:00 pm66 °FSprinkles. Fog.6 mph78%30.12 "Hg3 mi
7:00 pm70 °FPassing clouds.6 mph64%30.09 "Hg4 mi
6:00 pm70 °FScattered clouds.6 mph64%30.07 "Hg4 mi
5:00 pm72 °FScattered clouds.6 mph57%30.04 "HgN/A
4:00 pm72 °FPassing clouds.3 mph57%30.04 "HgN/A
3:00 pm73 °FPassing clouds.No wind53%30.07 "HgN/A
2:00 pm73 °FPassing clouds.1 mph57%30.09 "HgN/A
1:00 pm73 °FPassing clouds.No wind53%30.09 "HgN/A
12:00 pm72 °FPassing clouds.3 mph57%30.12 "HgN/A
11:00 am70 °FSunny.3 mph60%30.15 "Hg10 mi
Weather by CustomWeather, © 2019

See weather overview